^^
Meteo Knjazevac Station Historical Data
Daily Summary for April 3, 2022 Units:  English    Metric   Both
Daily Weekly Monthly Yearly Custom
  High: Low: Average:
Temperature: 36.3 °F 33.1 °F 34.7 °F
Dew Point: 36.1 °F 32.8 °F 34.4 °F
Humidity: 99% 98% 99%
Wind Speed: 9mph 1.8mph 4.9mph
Wind Gust: 13mph - -
Wind- - SSW
Pressure: 30.37 in 30.24 in -
Precipitation: 0.00 in    
Historical Graphs
 
 
Tabular Data for April 3, 2022
Time Temperature Dew Point Pressure Wind Wind Speed Wind Gust Humidity Rainfall Rate (Hourly) solar Conditions
00:04 34 °F 33.7 °F 30.24 in North 5.1 mph 6 mph 99% 0.00 in 0 W/m2
00:09 34.1 °F 33.8 °F 30.24 in North 4.6 mph 6 mph 99% 0.00 in 0 W/m2
00:14 34.2 °F 33.9 °F 30.24 in North 3.7 mph 5 mph 99% 0.00 in 0 W/m2
00:19 34.1 °F 33.8 °F 30.24 in North 3.6 mph 5 mph 99% 0.00 in 0 W/m2
00:24 34.1 °F 33.8 °F 30.24 in North 4.7 mph 5 mph 99% 0.00 in 0 W/m2
00:29 34.1 °F 33.8 °F 30.24 in North 3.8 mph 6 mph 99% 0.00 in 0 W/m2
00:34 34.1 °F 33.8 °F 30.24 in North 4.3 mph 5 mph 99% 0.00 in 0 W/m2
00:39 34 °F 33.7 °F 30.24 in North 4.2 mph 5 mph 99% 0.00 in 0 W/m2
00:44 34 °F 33.7 °F 30.24 in North 5 mph 7 mph 99% 0.00 in 0 W/m2
00:49 34 °F 33.7 °F 30.24 in North 4.6 mph 6 mph 99% 0.00 in 0 W/m2
00:54 34 °F 33.7 °F 30.25 in North 6 mph 6 mph 99% 0.00 in 0 W/m2
00:59 34 °F 33.7 °F 30.25 in North 5.6 mph 7 mph 99% 0.00 in 0 W/m2
01:04 33.9 °F 33.6 °F 30.25 in North 6.2 mph 8 mph 99% 0.00 in 0 W/m2
01:09 33.8 °F 33.5 °F 30.25 in North 5.2 mph 7 mph 99% 0.00 in 0 W/m2
01:14 33.8 °F 33.5 °F 30.25 in North 5.6 mph 6 mph 99% 0.00 in 0 W/m2
01:19 33.8 °F 33.5 °F 30.25 in North 6 mph 7 mph 99% 0.00 in 0 W/m2
01:24 33.8 °F 33.5 °F 30.25 in North 5.4 mph 7 mph 99% 0.00 in 0 W/m2
01:29 33.7 °F 33.5 °F 30.25 in North 3.9 mph 6 mph 99% 0.00 in 0 W/m2
01:34 33.6 °F 33.4 °F 30.25 in North 5.1 mph 5 mph 99% 0.00 in 0 W/m2
01:39 33.6 °F 33.4 °F 30.25 in North 4.9 mph 6 mph 99% 0.00 in 0 W/m2
01:44 33.6 °F 33.4 °F 30.25 in North 5.3 mph 6 mph 99% 0.00 in 0 W/m2
01:49 33.6 °F 33.4 °F 30.25 in North 5 mph 7 mph 99% 0.00 in 0 W/m2
01:54 33.6 °F 33.4 °F 30.25 in North 2.5 mph 7 mph 99% 0.00 in 0 W/m2
01:59 33.5 °F 33.3 °F 30.25 in North 4 mph 3.6 mph 99% 0.00 in 0 W/m2
02:04 33.5 °F 33.3 °F 30.26 in North 3.3 mph 6 mph 99% 0.00 in 0 W/m2
02:09 33.4 °F 33.2 °F 30.26 in North 5.3 mph 4.2 mph 99% 0.00 in 0 W/m2
02:14 33.4 °F 33.2 °F 30.25 in North 4.5 mph 7 mph 99% 0.00 in 0 W/m2
02:19 33.4 °F 33.2 °F 30.25 in North 3.7 mph 5 mph 99% 0.00 in 0 W/m2
02:24 33.4 °F 33.2 °F 30.25 in North 3.8 mph 6 mph 99% 0.00 in 0 W/m2
02:29 33.4 °F 33.2 °F 30.25 in North 3.7 mph 6 mph 99% 0.00 in 0 W/m2
02:34 33.4 °F 33.2 °F 30.25 in North 5.9 mph 6 mph 99% 0.00 in 0 W/m2
02:39 33.4 °F 33.2 °F 30.25 in North 5.5 mph 7 mph 99% 0.00 in 0 W/m2
02:44 33.4 °F 33.2 °F 30.25 in North 5.9 mph 7 mph 99% 0.00 in 0 W/m2
02:49 33.4 °F 33.2 °F 30.25 in North 5.1 mph 7 mph 99% 0.00 in 0 W/m2
02:54 33.4 °F 33.2 °F 30.25 in North 4.8 mph 8 mph 99% 0.00 in 0 W/m2
02:59 33.4 °F 33.2 °F 30.25 in North 5.2 mph 6 mph 99% 0.00 in 0 W/m2
03:04 33.3 °F 33.1 °F 30.25 in North 5.9 mph 8 mph 99% 0.00 in 0 W/m2
03:09 33.3 °F 33 °F 30.25 in North 6.9 mph 8 mph 99% 0.00 in 0 W/m2
03:14 33.3 °F 33.1 °F 30.25 in North 6.7 mph 8 mph 99% 0.00 in 0 W/m2
03:19 33.3 °F 33 °F 30.25 in North 4.7 mph 9 mph 99% 0.00 in 0 W/m2
03:24 33.3 °F 33 °F 30.25 in North 5.6 mph 6 mph 99% 0.00 in 0 W/m2
03:29 33.3 °F 33 °F 30.25 in North 4.5 mph 7 mph 99% 0.00 in 0 W/m2
03:34 33.3 °F 33 °F 30.25 in North 4 mph 5 mph 99% 0.00 in 0 W/m2
03:39 33.1 °F 32.8 °F 30.25 in North 4.3 mph 6 mph 99% 0.00 in 0 W/m2
03:44 33.1 °F 32.8 °F 30.25 in North 6.3 mph 5 mph 99% 0.00 in 0 W/m2
03:49 33.1 °F 32.8 °F 30.25 in North 4.8 mph 8 mph 99% 0.00 in 0 W/m2
03:54 33.1 °F 32.8 °F 30.25 in North 4.6 mph 6 mph 99% 0.00 in 0 W/m2
03:59 33.1 °F 32.8 °F 30.25 in North 7 mph 7 mph 99% 0.00 in 0 W/m2
04:04 33.1 °F 32.8 °F 30.25 in North 6.2 mph 8 mph 99% 0.00 in 0 W/m2
04:09 33.1 °F 32.8 °F 30.25 in North 5.5 mph 7 mph 99% 0.00 in 0 W/m2
04:14 33.1 °F 32.8 °F 30.25 in North 5.7 mph 6.5 mph 99% 0.00 in 0 W/m2
04:19 33.1 °F 32.8 °F 30.25 in North 4.8 mph 8 mph 99% 0.00 in 0 W/m2
04:24 33.1 °F 32.8 °F 30.25 in North 6 mph 7 mph 99% 0.00 in 0 W/m2
04:29 33.1 °F 32.8 °F 30.25 in North 5.7 mph 9 mph 99% 0.00 in 0 W/m2
04:34 33.1 °F 32.8 °F 30.25 in North 6.4 mph 8 mph 99% 0.00 in 0 W/m2
04:39 33.1 °F 32.8 °F 30.25 in North 5 mph 9 mph 99% 0.00 in 0 W/m2
04:44 33.1 °F 32.8 °F 30.25 in North 5.5 mph 6 mph 99% 0.00 in 0 W/m2
04:49 33.2 °F 32.9 °F 30.25 in North 5.1 mph 6 mph 99% 0.00 in 0 W/m2
04:54 33.1 °F 32.8 °F 30.25 in North 5.1 mph 6 mph 99% 0.00 in 0 W/m2
04:59 33.1 °F 32.8 °F 30.25 in North 6.6 mph 6 mph 99% 0.00 in 0 W/m2
05:04 33.1 °F 32.8 °F 30.26 in North 5.8 mph 9 mph 99% 0.00 in 0 W/m2
05:09 33.2 °F 32.9 °F 30.26 in North 5.4 mph 7 mph 99% 0.00 in 0 W/m2
05:14 33.1 °F 32.8 °F 30.25 in North 7.7 mph 6 mph 99% 0.00 in 0 W/m2
05:19 33.1 °F 32.8 °F 30.25 in North 6 mph 9 mph 99% 0.00 in 0 W/m2
05:24 33.1 °F 32.8 °F 30.25 in North 6.9 mph 8 mph 99% 0.00 in 0 W/m2
05:29 33.1 °F 32.8 °F 30.25 in North 4.8 mph 8 mph 99% 0.00 in 0 W/m2
05:34 33.1 °F 32.8 °F 30.25 in North 5.3 mph 6 mph 99% 0.00 in 0 W/m2
05:39 33.1 °F 32.8 °F 30.25 in North 6.3 mph 7 mph 99% 0.00 in 0 W/m2
05:44 33.1 °F 32.8 °F 30.25 in North 5.1 mph 7 mph 99% 0.00 in 0 W/m2
05:49 33.1 °F 32.8 °F 30.26 in North 5.7 mph 6 mph 99% 0.00 in 0 W/m2
05:54 33.1 °F 32.8 °F 30.26 in North 4.1 mph 7 mph 99% 0.00 in 0 W/m2
05:59 33.1 °F 32.8 °F 30.26 in North 5.8 mph 5 mph 99% 0.00 in 0 W/m2
06:04 33.1 °F 32.8 °F 30.26 in North 4.9 mph 7 mph 99% 0.00 in 0 W/m2
06:09 33.1 °F 32.8 °F 30.25 in North 4.9 mph 6 mph 99% 0.00 in 0 W/m2
06:14 33.1 °F 32.8 °F 30.25 in North 7.8 mph 8 mph 99% 0.00 in 0 W/m2
06:19 33.1 °F 32.8 °F 30.26 in North 7.5 mph 9 mph 99% 0.00 in 0 W/m2
06:24 33.1 °F 32.8 °F 30.26 in North 5.5 mph 9 mph 99% 0.00 in 0 W/m2
06:29 33.1 °F 32.8 °F 30.26 in North 4 mph 7 mph 99% 0.00 in 0 W/m2
06:34 33.1 °F 32.8 °F 30.26 in North 5.3 mph 5 mph 99% 0.00 in 0 W/m2
06:39 33.2 °F 32.9 °F 30.26 in North 6.2 mph 7 mph 99% 0.00 in 0 W/m2
06:44 33.3 °F 33 °F 30.26 in North 5.1 mph 8 mph 99% 0.00 in 0 W/m2
06:49 33.3 °F 33 °F 30.26 in North 6.4 mph 5 mph 99% 0.00 in 1 W/m2
06:54 33.3 °F 33 °F 30.26 in North 5.3 mph 7 mph 99% 0.00 in 2 W/m2
06:59 33.3 °F 33 °F 30.27 in North 6.6 mph 8 mph 99% 0.00 in 2 W/m2
07:04 33.3 °F 33 °F 30.27 in North 6.3 mph 8 mph 99% 0.00 in 4 W/m2
07:09 33.3 °F 33 °F 30.27 in North 8.3 mph 8 mph 99% 0.00 in 6 W/m2
07:14 33.3 °F 33 °F 30.27 in North 6.5 mph 9 mph 99% 0.00 in 7 W/m2
07:19 33.3 °F 33 °F 30.27 in North 6.3 mph 7 mph 99% 0.00 in 9 W/m2
07:24 33.3 °F 33 °F 30.27 in North 5.7 mph 7 mph 99% 0.00 in 11 W/m2
07:29 33.3 °F 33 °F 30.27 in North 7.7 mph 7 mph 99% 0.00 in 13 W/m2
07:34 33.3 °F 33 °F 30.27 in North 4.7 mph 9 mph 99% 0.00 in 15 W/m2
07:39 33.4 °F 33.2 °F 30.27 in North 5.3 mph 6 mph 99% 0.00 in 20 W/m2
07:44 33.4 °F 33.2 °F 30.27 in North 5.6 mph 6 mph 99% 0.00 in 21 W/m2
07:49 33.4 °F 33.2 °F 30.27 in North 3.7 mph 7 mph 99% 0.00 in 25 W/m2
07:54 33.5 °F 33.3 °F 30.27 in North 4.9 mph 5 mph 99% 0.00 in 30 W/m2
07:59 33.6 °F 33.4 °F 30.27 in North 5.8 mph 6 mph 99% 0.00 in 30 W/m2
08:04 33.6 °F 33.4 °F 30.27 in North 5.1 mph 8 mph 99% 0.00 in 33 W/m2
08:09 33.6 °F 33.4 °F 30.27 in North 4.6 mph 7 mph 99% 0.00 in 34 W/m2
08:14 33.6 °F 33.4 °F 30.27 in North 3.9 mph 6 mph 99% 0.00 in 35 W/m2
08:19 33.7 °F 33.5 °F 30.27 in North 4.8 mph 5 mph 99% 0.00 in 40 W/m2
08:24 33.8 °F 33.5 °F 30.27 in North 5.8 mph 6 mph 99% 0.00 in 41 W/m2
08:29 33.8 °F 33.5 °F 30.27 in North 4.4 mph 7 mph 99% 0.00 in 39 W/m2
08:34 33.8 °F 33.5 °F 30.28 in North 3.1 mph 5 mph 99% 0.00 in 40 W/m2
08:39 33.8 °F 33.5 °F 30.28 in North 4.2 mph 6 mph 99% 0.00 in 42 W/m2
08:44 33.9 °F 33.6 °F 30.28 in North 4.4 mph 5 mph 99% 0.00 in 43 W/m2
08:49 34 °F 33.7 °F 30.28 in North 4.3 mph 5 mph 99% 0.00 in 42 W/m2
08:54 34 °F 33.7 °F 30.28 in North 7.5 mph 8 mph 99% 0.00 in 44 W/m2
08:59 34 °F 33.7 °F 30.28 in North 5.6 mph 8 mph 99% 0.00 in 45 W/m2
09:04 34.1 °F 33.8 °F 30.28 in North 4 mph 7 mph 99% 0.00 in 50 W/m2
09:09 34 °F 33.7 °F 30.28 in North 5.7 mph 7 mph 99% 0.00 in 56 W/m2
09:14 34 °F 33.7 °F 30.28 in North 4.4 mph 7 mph 99% 0.00 in 51 W/m2
09:19 34 °F 33.7 °F 30.28 in North 6.1 mph 6 mph 99% 0.00 in 52 W/m2
09:24 34 °F 33.7 °F 30.28 in North 6.3 mph 7 mph 99% 0.00 in 52 W/m2
09:29 34 °F 33.7 °F 30.28 in North 5.1 mph 8 mph 99% 0.00 in 59 W/m2
09:34 34.2 °F 33.9 °F 30.28 in North 5.6 mph 6 mph 99% 0.00 in 49 W/m2
09:39 34.2 °F 33.9 °F 30.29 in North 5.3 mph 7 mph 99% 0.00 in 55 W/m2
09:44 34.1 °F 33.8 °F 30.29 in North 4.7 mph 7 mph 99% 0.00 in 61 W/m2
09:49 34.2 °F 33.9 °F 30.29 in North 6.7 mph 8 mph 99% 0.00 in 56 W/m2
09:54 34.2 °F 33.9 °F 30.29 in North 6 mph 8 mph 99% 0.00 in 69 W/m2
09:59 34.3 °F 34.1 °F 30.29 in North 6.1 mph 7 mph 99% 0.00 in 64 W/m2
10:04 34.3 °F 34.1 °F 30.29 in North 4.1 mph 7 mph 99% 0.00 in 61 W/m2
10:09 34.4 °F 34.2 °F 30.29 in North 4.2 mph 5 mph 99% 0.00 in 65 W/m2
10:14 34.5 °F 34.3 °F 30.28 in North 4.2 mph 5 mph 99% 0.00 in 71 W/m2
10:19 34.5 °F 34.3 °F 30.28 in North 4.5 mph 5 mph 99% 0.00 in 71 W/m2
10:24 34.5 °F 34.3 °F 30.28 in North 4.5 mph 6 mph 99% 0.00 in 70 W/m2
10:29 34.7 °F 34.4 °F 30.28 in North 4.3 mph 5 mph 99% 0.00 in 73 W/m2
10:34 34.7 °F 34.4 °F 30.28 in North 4.7 mph 5 mph 99% 0.00 in 75 W/m2
10:39 34.7 °F 34.4 °F 30.28 in North 3.2 mph 6 mph 99% 0.00 in 74 W/m2
10:44 34.9 °F 34.6 °F 30.28 in NNE 4.9 mph 5 mph 99% 0.00 in 87 W/m2
10:49 34.9 °F 34.6 °F 30.28 in NNE 5.2 mph 6 mph 99% 0.00 in 93 W/m2
10:54 35.1 °F 34.8 °F 30.28 in NNE 5.9 mph 7 mph 99% 0.00 in 101 W/m2
10:59 35.2 °F 35 °F 30.28 in North 5.9 mph 7 mph 99% 0.00 in 90 W/m2
11:04 35.2 °F 35 °F 30.28 in North 5.7 mph 7 mph 99% 0.00 in 92 W/m2
11:09 35.2 °F 35 °F 30.28 in NNE 6.8 mph 7 mph 99% 0.00 in 85 W/m2
11:14 35.2 °F 35 °F 30.28 in NNE 7.7 mph 8 mph 99% 0.00 in 87 W/m2
11:19 35.2 °F 35 °F 30.27 in North 5.5 mph 8 mph 99% 0.00 in 77 W/m2
11:24 35.2 °F 35 °F 30.27 in North 5.2 mph 6 mph 99% 0.00 in 74 W/m2
11:29 35.3 °F 35.1 °F 30.27 in North 4.6 mph 8 mph 99% 0.00 in 74 W/m2
11:34 35.3 °F 35.1 °F 30.27 in North 6.3 mph 7 mph 99% 0.00 in 75 W/m2
11:39 35.4 °F 35.2 °F 30.27 in North 5.6 mph 8 mph 99% 0.00 in 73 W/m2
11:44 35.4 °F 35.2 °F 30.27 in NNE 4.9 mph 7 mph 99% 0.00 in 76 W/m2
11:49 35.4 °F 35.2 °F 30.27 in North 5 mph 6 mph 99% 0.00 in 67 W/m2
11:54 35.4 °F 35.2 °F 30.27 in North 5 mph 6 mph 99% 0.00 in 69 W/m2
11:59 35.4 °F 35.2 °F 30.27 in North 3.1 mph 6 mph 99% 0.00 in 63 W/m2
12:04 35.4 °F 35.2 °F 30.27 in North 3 mph 5 mph 99% 0.00 in 63 W/m2
12:09 35.4 °F 35.2 °F 30.27 in North 4.3 mph 6 mph 99% 0.00 in 69 W/m2
12:14 35.5 °F 35.2 °F 30.27 in North 4.6 mph 5 mph 99% 0.00 in 65 W/m2
12:19 35.5 °F 35.3 °F 30.27 in North 3.8 mph 6 mph 99% 0.00 in 67 W/m2
12:24 35.4 °F 35.2 °F 30.27 in North 4.6 mph 5 mph 99% 0.00 in 66 W/m2
12:29 35.4 °F 35.2 °F 30.27 in North 4.4 mph 6 mph 99% 0.00 in 70 W/m2
12:34 35.6 °F 35.3 °F 30.27 in North 4.1 mph 6 mph 99% 0.00 in 71 W/m2
12:39 35.6 °F 35.3 °F 30.27 in North 3.8 mph 7 mph 99% 0.00 in 73 W/m2
12:44 35.8 °F 35.5 °F 30.27 in North 4.3 mph 5 mph 99% 0.00 in 73 W/m2
12:49 35.8 °F 35.5 °F 30.26 in North 5.3 mph 6 mph 99% 0.00 in 63 W/m2
12:54 35.9 °F 35.6 °F 30.26 in North 5.2 mph 8 mph 99% 0.00 in 63 W/m2
12:59 36 °F 35.7 °F 30.26 in North 6.8 mph 8 mph 99% 0.00 in 65 W/m2
13:04 36 °F 35.7 °F 30.26 in North 4.2 mph 8 mph 99% 0.00 in 63 W/m2
13:09 36 °F 35.7 °F 30.26 in North 3.4 mph 5 mph 99% 0.00 in 67 W/m2
13:14 36.1 °F 35.9 °F 30.26 in North 4.4 mph 5 mph 99% 0.00 in 70 W/m2
13:19 36.1 °F 35.9 °F 30.26 in North 6.3 mph 7 mph 99% 0.00 in 61 W/m2
13:24 36.1 °F 35.9 °F 30.26 in North 5.1 mph 7 mph 99% 0.00 in 59 W/m2
13:29 36.1 °F 35.8 °F 30.26 in North 6.4 mph 8 mph 99% 0.00 in 57 W/m2
13:34 36.1 °F 35.9 °F 30.26 in North 5 mph 8 mph 99% 0.00 in 63 W/m2
13:39 36.1 °F 35.9 °F 30.26 in North 4.6 mph 7 mph 99% 0.00 in 61 W/m2
13:44 36.2 °F 36 °F 30.26 in North 5.4 mph 6 mph 99% 0.00 in 60 W/m2
13:49 36.3 °F 36.1 °F 30.26 in North 5.1 mph 7 mph 99% 0.00 in 59 W/m2
13:54 36.3 °F 36.1 °F 30.26 in North 4 mph 6 mph 99% 0.00 in 53 W/m2
13:59 36.3 °F 36.1 °F 30.26 in North 5.2 mph 7 mph 99% 0.00 in 49 W/m2
14:04 36.3 °F 36.1 °F 30.26 in North 4.1 mph 6 mph 99% 0.00 in 49 W/m2
14:09 36.3 °F 36.1 °F 30.26 in North 3.2 mph 5 mph 99% 0.00 in 43 W/m2
14:14 36.3 °F 36.1 °F 30.26 in North 4.3 mph 5 mph 99% 0.00 in 40 W/m2
14:19 36.3 °F 36.1 °F 30.26 in North 4.6 mph 6 mph 99% 0.00 in 35 W/m2
14:24 36.3 °F 36.1 °F 30.26 in North 3.2 mph 6 mph 99% 0.00 in 32 W/m2
14:29 36.3 °F 36.1 °F 30.26 in North 4.9 mph 4 mph 99% 0.00 in 30 W/m2
14:34 36.3 °F 36.1 °F 30.26 in North 5.5 mph 7 mph 99% 0.00 in 30 W/m2
14:39 36.3 °F 36.1 °F 30.26 in North 5.3 mph 8 mph 99% 0.00 in 29 W/m2
14:44 36.2 °F 36 °F 30.26 in North 4.9 mph 6 mph 99% 0.00 in 25 W/m2
14:49 36.1 °F 35.9 °F 30.26 in North 4.3 mph 6 mph 99% 0.00 in 21 W/m2
14:54 36.1 °F 35.9 °F 30.26 in NNW 5.8 mph 7 mph 99% 0.00 in 19 W/m2
14:59 36.1 °F 35.8 °F 30.26 in NNW 4.6 mph 7 mph 99% 0.00 in 18 W/m2
15:04 36 °F 35.8 °F 30.26 in NNW 4.1 mph 5 mph 99% 0.00 in 13 W/m2
15:09 36 °F 35.7 °F 30.26 in North 3.6 mph 5 mph 99% 0.00 in 12 W/m2
15:14 36 °F 35.7 °F 30.26 in NNW 4.1 mph 5 mph 99% 0.00 in 10 W/m2
15:19 36 °F 35.7 °F 30.26 in NW 3.6 mph 5 mph 99% 0.00 in 9 W/m2
15:24 35.9 °F 35.6 °F 30.26 in NNW 5 mph 5 mph 99% 0.00 in 8 W/m2
15:29 35.9 °F 35.6 °F 30.27 in NNW 3.7 mph 7 mph 99% 0.00 in 7 W/m2
15:34 35.8 °F 35.5 °F 30.27 in NNW 2.8 mph 5 mph 99% 0.00 in 6 W/m2
15:39 35.8 °F 35.5 °F 30.27 in North 1.8 mph 3 mph 99% 0.00 in 4 W/m2
15:44 35.8 °F 35.5 °F 30.27 in North 3.1 mph 3.1 mph 99% 0.00 in 3 W/m2
15:49 35.8 °F 35.5 °F 30.27 in North 3.7 mph 5 mph 99% 0.00 in 2 W/m2
15:54 35.8 °F 35.5 °F 30.27 in North 5 mph 4.9 mph 99% 0.00 in 1 W/m2
15:59 35.8 °F 35.5 °F 30.27 in North 5.5 mph 7 mph 99% 0.00 in 0 W/m2
16:04 35.8 °F 35.5 °F 30.27 in North 3.8 mph 6 mph 99% 0.00 in 0 W/m2
16:09 35.8 °F 35.5 °F 30.27 in North 3.4 mph 6 mph 99% 0.00 in 0 W/m2
16:14 35.6 °F 35.3 °F 30.27 in North 4.5 mph 7 mph 99% 0.00 in 0 W/m2
16:19 35.6 °F 35.3 °F 30.27 in North 4.4 mph 6 mph 99% 0.00 in 0 W/m2
16:24 35.6 °F 35.3 °F 30.27 in North 4.8 mph 5 mph 99% 0.00 in 0 W/m2
16:29 35.6 °F 35.3 °F 30.27 in North 3.5 mph 6 mph 99% 0.00 in 0 W/m2
16:34 35.6 °F 35.3 °F 30.27 in North 3.8 mph 4 mph 99% 0.00 in 0 W/m2
16:39 35.6 °F 35.3 °F 30.27 in North 2.4 mph 5 mph 99% 0.00 in 0 W/m2
16:44 35.6 °F 35.3 °F 30.27 in North 2.8 mph 3 mph 99% 0.00 in 0 W/m2
16:49 35.6 °F 35.3 °F 30.27 in NNW 2.7 mph 3 mph 99% 0.00 in 0 W/m2
16:54 35.5 °F 35.2 °F 30.27 in NW 2.4 mph 3 mph 99% 0.00 in 0 W/m2
16:59 35.4 °F 35.2 °F 30.27 in NNW 1.8 mph 3 mph 99% 0.00 in 0 W/m2
17:04 35.4 °F 35.2 °F 30.27 in North 3.7 mph 4 mph 99% 0.00 in 0 W/m2
17:09 35.4 °F 35.2 °F 30.27 in North 3.1 mph 5 mph 99% 0.00 in 0 W/m2
17:14 35.4 °F 35.2 °F 30.27 in North 3.9 mph 5 mph 99% 0.00 in 0 W/m2
17:19 35.4 °F 35.2 °F 30.27 in North 3.9 mph 5 mph 99% 0.00 in 0 W/m2
17:24 35.3 °F 35.1 °F 30.27 in North 5 mph 6 mph 99% 0.00 in 0 W/m2
17:29 35.2 °F 35 °F 30.27 in North 4.1 mph 6 mph 99% 0.00 in 0 W/m2
17:34 35.2 °F 35 °F 30.27 in North 3.8 mph 5 mph 99% 0.00 in 0 W/m2
17:39 35.2 °F 35 °F 30.27 in North 6.8 mph 7 mph 99% 0.00 in 0 W/m2
17:44 35.2 °F 35 °F 30.27 in North 5.5 mph 8 mph 99% 0.00 in 0 W/m2
17:49 35.2 °F 35 °F 30.27 in North 6 mph 7 mph 99% 0.00 in 0 W/m2
17:54 35.2 °F 35 °F 30.28 in North 3.6 mph 8 mph 99% 0.00 in 0 W/m2
17:59 35.2 °F 35 °F 30.28 in North 3.6 mph 4 mph 99% 0.00 in 0 W/m2
18:04 35.2 °F 35 °F 30.28 in North 3.8 mph 5 mph 99% 0.00 in 0 W/m2
18:09 35.2 °F 35 °F 30.28 in North 3.6 mph 5 mph 99% 0.00 in 0 W/m2
18:14 35.2 °F 35 °F 30.28 in NNE 4.1 mph 5 mph 99% 0.00 in 0 W/m2
18:19 35.2 °F 35 °F 30.28 in NNE 3.9 mph 6 mph 99% 0.00 in 0 W/m2
18:24 35.2 °F 35 °F 30.28 in North 4.6 mph 4 mph 99% 0.00 in 0 W/m2
18:29 35.2 °F 35 °F 30.28 in North 3.8 mph 6 mph 99% 0.00 in 0 W/m2
18:34 35.2 °F 35 °F 30.28 in North 4.9 mph 5 mph 99% 0.00 in 0 W/m2
18:39 35.2 °F 35 °F 30.28 in North 5.1 mph 7 mph 99% 0.00 in 0 W/m2
18:44 35.2 °F 35 °F 30.28 in North 3.5 mph 6 mph 99% 0.00 in 0 W/m2
18:49 35.2 °F 35 °F 30.36 in North 4.8 mph 5 mph 99% 0.00 in 0 W/m2
18:54 35.2 °F 35 °F 30.36 in North 4 mph 6 mph 99% 0.00 in 0 W/m2
18:59 35.2 °F 35 °F 30.36 in North 3.4 mph 5 mph 99% 0.00 in 0 W/m2
19:04 35.2 °F 35 °F 30.36 in North 2.9 mph 4 mph 99% 0.00 in 0 W/m2
19:09 35.2 °F 35 °F 30.36 in North 3.5 mph 4 mph 99% 0.00 in 0 W/m2
19:14 35.2 °F 35 °F 30.36 in North 3 mph 4 mph 99% 0.00 in 0 W/m2
19:19 35.2 °F 35 °F 30.36 in North 4.7 mph 5 mph 99% 0.00 in 0 W/m2
19:24 35.2 °F 35 °F 30.36 in North 7.4 mph 8 mph 99% 0.00 in 0 W/m2
19:29 35.2 °F 35 °F 30.36 in NNW 4.4 mph 9 mph 99% 0.00 in 0 W/m2
19:34 35.2 °F 35 °F 30.36 in NNW 6.1 mph 5 mph 99% 0.00 in 0 W/m2
19:39 35.2 °F 35 °F 30.36 in North 6.4 mph 7 mph 99% 0.00 in 0 W/m2
19:44 35.2 °F 35 °F 30.36 in North 4.8 mph 8 mph 99% 0.00 in 0 W/m2
19:49 35.2 °F 35 °F 30.36 in NNW 4.6 mph 6 mph 99% 0.00 in 0 W/m2
19:54 35.2 °F 35 °F 30.36 in NNW 2 mph 6 mph 99% 0.00 in 0 W/m2
19:59 35.2 °F 35 °F 30.36 in NNW 4.1 mph 5 mph 99% 0.00 in 0 W/m2
20:04 35.2 °F 35 °F 30.36 in NNW 4.6 mph 5 mph 99% 0.00 in 0 W/m2
20:09 35.2 °F 35 °F 30.36 in NNW 4.7 mph 5 mph 99% 0.00 in 0 W/m2
20:14 35.2 °F 35 °F 30.36 in NW 4.8 mph 6 mph 99% 0.00 in 0 W/m2
20:19 35.2 °F 35 °F 30.36 in NW 3.6 mph 6 mph 99% 0.00 in 0 W/m2
20:24 35.2 °F 35 °F 30.36 in NNW 4.8 mph 5 mph 99% 0.00 in 0 W/m2
20:29 35.2 °F 35 °F 30.36 in NW 3.8 mph 6 mph 99% 0.00 in 0 W/m2
20:34 35.2 °F 35 °F 30.37 in WNW 3 mph 5 mph 99% 0.00 in 0 W/m2
20:39 35.2 °F 35 °F 30.37 in WNW 4.4 mph 4 mph 99% 0.00 in 0 W/m2
20:44 35.2 °F 35 °F 30.37 in West 3.6 mph 5 mph 99% 0.00 in 0 W/m2
20:49 35.2 °F 35 °F 30.37 in NW 4.5 mph 5 mph 99% 0.00 in 0 W/m2
20:54 35.2 °F 35 °F 30.36 in NNW 3.8 mph 6 mph 99% 0.00 in 0 W/m2
20:59 35.2 °F 35 °F 30.36 in North 3.2 mph 5 mph 99% 0.00 in 0 W/m2
21:04 35.2 °F 35 °F 30.36 in North 2.7 mph 4 mph 99% 0.00 in 0 W/m2
21:09 35.2 °F 35 °F 30.36 in North 3.2 mph 3 mph 99% 0.00 in 0 W/m2
21:14 35.3 °F 35.1 °F 30.36 in North 3 mph 3 mph 99% 0.00 in 0 W/m2
21:19 35.4 °F 35.2 °F 30.36 in North 2.7 mph 4 mph 99% 0.00 in 0 W/m2
21:24 35.4 °F 35.2 °F 30.36 in NNW 3.5 mph 3 mph 99% 0.00 in 0 W/m2
21:29 35.4 °F 35.2 °F 30.36 in NW 2.7 mph 6 mph 99% 0.00 in 0 W/m2
21:34 35.4 °F 35.2 °F 30.36 in NW 3.6 mph 3.1 mph 99% 0.00 in 0 W/m2
21:39 35.4 °F 35.2 °F 30.36 in North 4.2 mph 5 mph 99% 0.00 in 0 W/m2
21:44 35.4 °F 35.2 °F 30.36 in North 4.5 mph 6 mph 99% 0.00 in 0 W/m2
21:49 35.4 °F 35.2 °F 30.37 in North 4.1 mph 6 mph 99% 0.00 in 0 W/m2
21:54 35.4 °F 35.2 °F 30.37 in North 4.6 mph 5 mph 99% 0.00 in 0 W/m2
21:59 35.5 °F 35.3 °F 30.37 in North 3.9 mph 6 mph 99% 0.00 in 0 W/m2
22:04 35.6 °F 35.3 °F 30.37 in North 6.7 mph 8 mph 99% 0.00 in 0 W/m2
22:09 35.6 °F 35.3 °F 30.37 in North 5.7 mph 8 mph 99% 0.00 in 0 W/m2
22:14 35.6 °F 35.3 °F 30.37 in North 5.3 mph 8 mph 99% 0.00 in 0 W/m2
22:19 35.6 °F 35.3 °F 30.37 in North 7.6 mph 6.5 mph 99% 0.00 in 0 W/m2
22:24 35.6 °F 35.3 °F 30.36 in North 5.6 mph 9 mph 99% 0.00 in 0 W/m2
22:29 35.7 °F 35.4 °F 30.36 in NNW 7.5 mph 7 mph 99% 0.00 in 0 W/m2
22:34 35.8 °F 35.5 °F 30.36 in NNW 5.1 mph 12 mph 99% 0.00 in 0 W/m2
22:39 35.8 °F 35.5 °F 30.37 in NNW 5.4 mph 6 mph 99% 0.00 in 0 W/m2
22:44 35.8 °F 35.5 °F 30.37 in NNW 7.2 mph 7 mph 99% 0.00 in 0 W/m2
22:49 35.8 °F 35.5 °F 30.36 in NNW 5.2 mph 8 mph 99% 0.00 in 0 W/m2
22:54 35.8 °F 35.5 °F 30.37 in North 3.2 mph 8 mph 99% 0.00 in 0 W/m2
22:59 35.9 °F 35.6 °F 30.37 in North 4.2 mph 5 mph 99% 0.00 in 0 W/m2
23:04 36 °F 35.7 °F 30.37 in North 3.6 mph 6 mph 99% 0.00 in 0 W/m2
23:09 36 °F 35.7 °F 30.37 in North 3.8 mph 3 mph 99% 0.00 in 0 W/m2
23:14 36 °F 35.7 °F 30.36 in North 3 mph 5 mph 99% 0.00 in 0 W/m2
23:19 36 °F 35.7 °F 30.36 in North 5.5 mph 4 mph 99% 0.00 in 0 W/m2
23:24 36.1 °F 35.8 °F 30.36 in North 6.1 mph 9 mph 98.8% 0.00 in 0 W/m2
23:29 36.1 °F 35.6 °F 30.36 in North 7.9 mph 8 mph 98% 0.00 in 0 W/m2
23:34 36.1 °F 35.6 °F 30.36 in North 8.8 mph 10 mph 98% 0.00 in 0 W/m2
23:39 36.2 °F 35.7 °F 30.36 in North 8.1 mph 13 mph 98% 0.00 in 0 W/m2
23:44 36.3 °F 35.8 °F 30.36 in North 9 mph 11 mph 98% 0.00 in 0 W/m2
23:49 36.3 °F 35.8 °F 30.36 in NNW 7.8 mph 10 mph 98% 0.00 in 0 W/m2
23:54 36.3 °F 35.8 °F 30.36 in NNW 7.6 mph 9 mph 98% 0.00 in 0 W/m2
23:59 36.3 °F 35.8 °F 30.36 in North 7.3 mph 9 mph 98% 0.00 in 0 W/m2
Knjazevac, Serbia
Compliments of Weather Underground - 4 mb